This is the latest recevied weather packets stored in our database for station/object KG5MMT-15. If no packets are shown the sender has not sent any weather packets the latest 10 day(s).
| Time | Temp. | Humidity | Pressure | Rain* | Wind** | Luminosity | Snow |
|---|---|---|---|---|---|---|---|
| 1778097434 | 13.89° C | 41% | 0 hPa | 0 mm | - | - | - |
| 1778097134 | 14.44° C | 39% | 0 hPa | 0 mm | - | - | - |
| 1778096834 | 15° C | 37% | 0 hPa | 0 mm | - | - | - |
| 1778096534 | 14.44° C | 39% | 0 hPa | 0 mm | - | - | - |
| 1778096234 | 13.89° C | 42% | 0 hPa | 0 mm | - | - | - |
| 1778095934 | 13.33° C | 42% | 0 hPa | 0 mm | - | - | - |
| 1778095634 | 13.33° C | 42% | 0 hPa | 0 mm | - | - | - |
| 1778095334 | 13.33° C | 40% | 0 hPa | 0 mm | - | - | - |
| 1778095034 | 12.78° C | 41% | 0 hPa | 0 mm | - | - | - |
| 1778094735 | 12.78° C | 40% | 0 hPa | 0 mm | - | - | - |
| 1778094434 | 13.33° C | 40% | 0 hPa | 0 mm | - | - | - |
| 1778094134 | 13.33° C | 39% | 0 hPa | 0 mm | - | - | - |
| 1778093834 | 13.33° C | 40% | 0 hPa | 0 mm | - | - | - |
| 1778093534 | 12.78° C | 38% | 0 hPa | 0 mm | - | - | - |
| 1778093234 | 13.33° C | 39% | 0 hPa | 0 mm | - | - | - |
| 1778092935 | 12.78° C | 39% | 0 hPa | 0 mm | - | - | - |
| 1778092634 | 12.22° C | 40% | 0 hPa | 0 mm | - | - | - |
| 1778092334 | 12.22° C | 39% | 0 hPa | 0 mm | - | - | - |
| 1778092034 | 12.22° C | 39% | 0 hPa | 0 mm | - | - | - |
| 1778091734 | 13.33° C | 37% | 0 hPa | 0 mm | - | - | - |
| 1778091434 | 13.33° C | 36% | 0 hPa | 0 mm | - | - | - |
| 1778091135 | 13.33° C | 37% | 0 hPa | 0 mm | - | - | - |
| 1778090834 | 13.33° C | 36% | 0 hPa | 0 mm | - | - | - |
| 1778090535 | 13.89° C | 34% | 0 hPa | 0 mm | - | - | - |
| 1778090234 | 14.44° C | 35% | 0 hPa | 0 mm | - | - | - |
* Rain latest hour (hover to see other rain measurements)
** Current wind speed in m/s (hover to see current wind gust speed)